Location: Poughquag
(41.6090°N, 73.6820°W)
Time: 12:25:02
(UTC-04:00)

Vanguard 1 Rocket - Pass Details

Date: 30 May 2020
Orbit: 653 x 4224 km, 34.3° (Epoch: 06 July)

Event Time Altitude Azimuth Distance (km) Brightness Sun altitude
Rises 04:10:52 0° 264° (W) 6,802 11.4 -11.7°
Reaches altitude 10° 04:16:17 10° 261° (W) 5,199 10.7 -10.9°
Maximum altitude 04:28:55 55° 189° (S) 1,743 8.6 -9.2°
Drops below altitude 10° 04:35:33 10° 112° (ESE) 2,812 10.3 -8.2°
Sets 04:37:38 0° 108° (ESE) 3,529 10.9 -7.9°
